Home   Weather   Hommelvik   Past weeks

Flag for Norway Past Weather in Hommelvik, Norway — Yesterday and Last 2 Weeks

Now
N/A

Overcast.


Feels Like: N/A
Forecast: 32 / 41 °F
Wind: N/A

Location: Trondheim / Vaernes

Current Time: Jan 23, 2017 at 9:53:12 am

Latest Report: Jan 23, 2017 at 9:00 am


Visibility: 10 mi

Pressure: N/A

Humidity: N/A

Dew Point: N/A

Location of HommelvikLocation

Past Weather in Hommelvik — Graph

°F

Hommelvik Temperature Yesterday

Maximum temperature yesterday: 45 °F (at 1:00 pm)
Minimum temperature yesterday: 39 °F (at 4:00 am)
Average temperature yesterday: 42 °F

High & Low Weather Summary for the Past Weeks

 TemperatureHumidityPressure
High47 °F (Jan 18, 3:00 pm)99% (Jan 12, 5:00 am)30.30 "Hg (Jan 12, 5:00 am)
Low24 °F (Jan 13, 7:00 am)52% (Jan 11, 3:00 am)28.61 "Hg (Jan 11, 2:00 pm)
Average37 °F83%29.78 "Hg
* Reported Jan 8 8:00 am — Jan 23 8:00 am, Hommelvik, Weather by CustomWeather, © 2017

Note: Actual official high and low records may vary slightly from our data, if they occured in-between our weather recording intervals... More about our weather records

Advertising

Hommelvik Weather History for the Previous 24 Hours

Scroll right to see more
 ConditionsComfort  
Time TempWeatherWind HumidityBarometerVisibility
8:00 am
Mon, Jan 23
N/AOvercast.N/AN/AN/A11 mi
7:00 am40 °FSprinkles. Overcast.12 mph86%29.83 "Hg14 mi
6:00 am40 °FRain showers. Overcast.10 mph88%29.82 "Hg9 mi
5:00 amN/AOvercast.N/AN/AN/A6 mi
4:00 am39 °FRain. Overcast.5 mph92%29.84 "Hg6 mi
3:00 am40 °FRain showers. Overcast.7 mph84%29.85 "Hg11 mi
2:00 am42 °FRain showers. Overcast.5 mph73%29.86 "Hg31 mi
1:00 am43 °FRain showers. Overcast.7 mph70%29.88 "Hg31 mi
12:00 am43 °FRain showers. Overcast.7 mph67%29.89 "Hg31 mi
11:00 pm
Sun, Jan 22
44 °FOvercast.6 mph66%29.91 "Hg31 mi
10:00 pm43 °FOvercast.6 mph66%29.93 "Hg31 mi
9:00 pm44 °FOvercast.7 mph66%29.94 "Hg31 mi
8:00 pm44 °FOvercast.7 mph67%29.96 "Hg31 mi
7:00 pm44 °FOvercast.7 mph68%29.98 "Hg31 mi
6:00 pm43 °FOvercast.6 mph70%29.99 "Hg31 mi
5:00 pm43 °FOvercast.5 mph71%30.01 "Hg31 mi
4:00 pmN/AOvercast.N/AN/AN/A31 mi
3:00 pm44 °FOvercast.7 mph68%30.04 "Hg31 mi
2:00 pmN/AOvercast.N/AN/AN/A31 mi
1:00 pm45 °FOvercast.10 mph68%30.07 "Hg31 mi
12:00 pm43 °FOvercast.5 mph76%30.09 "Hg31 mi
11:00 am42 °FOvercast.7 mph78%30.10 "Hg31 mi
10:00 amN/AOvercast.N/AN/AN/A31 mi
9:00 am43 °FOvercast.5 mph78%30.11 "Hg31 mi
Weather by CustomWeather, © 2017

See weather overviewHow to use our weather pages